AWC955 SUMU-SGAS

Flight info

Callsign AWC955
Flight time N/A
Altitude 37000
Route VUKAS UM402 KONTO KONTO
Aircraft A320/M-SDE3FGHIRWY/LB1

Departure

Time N/A
Airport Carrasco General Cesáreo L. Berisso International Airport (SUMU)

Arrival

Time 2026-04-29 21:51
Airport Silvio Pettirossi International Airport (SGAS)
Time Latitude Longitude Altitude Speed Heading
2026-04-29 21:30 -27.22942 -57.23671 33052 ft 445 kts 346°
2026-04-29 21:31 -27.16720 -57.24571 32999 ft 450 kts 346°
2026-04-29 21:31 -27.10507 -57.25452 32999 ft 450 kts 346°
2026-04-29 21:32 -27.04323 -57.26326 32998 ft 451 kts 347°
2026-04-29 21:32 -26.97472 -57.27302 33003 ft 450 kts 347°
2026-04-29 21:33 -26.91252 -57.28197 32998 ft 450 kts 347°
2026-04-29 21:33 -26.85028 -57.29084 32750 ft 451 kts 347°
2026-04-29 21:33 -26.81913 -57.29527 32494 ft 451 kts 347°
2026-04-29 21:34 -26.78802 -57.30003 32243 ft 449 kts 343°
2026-04-29 21:34 -26.75843 -57.30888 31998 ft 443 kts 334°
2026-04-29 21:34 -26.73017 -57.32311 31744 ft 438 kts 326°
2026-04-29 21:34 -26.70409 -57.34049 31306 ft 437 kts 324°
2026-04-29 21:35 -26.67818 -57.35791 30292 ft 444 kts 324°
2026-04-29 21:35 -26.65158 -57.37575 29174 ft 449 kts 324°
2026-04-29 21:35 -26.62471 -57.39373 28159 ft 450 kts 324°
2026-04-29 21:35 -26.59779 -57.41170 27039 ft 453 kts 324°
2026-04-29 21:36 -26.57064 -57.42983 26214 ft 451 kts 324°
2026-04-29 21:36 -26.54393 -57.44762 25581 ft 444 kts 324°
2026-04-29 21:36 -26.51752 -57.46521 24869 ft 440 kts 324°
2026-04-29 21:36 -26.49135 -57.48267 24166 ft 437 kts 324°
2026-04-29 21:37 -26.46550 -57.50016 23456 ft 433 kts 323°
2026-04-29 21:37 -26.43952 -57.51720 22699 ft 432 kts 328°
2026-04-29 21:37 -26.41157 -57.52966 22016 ft 435 kts 338°
2026-04-29 21:37 -26.38183 -57.53609 21332 ft 439 kts 349°
2026-04-29 21:38 -26.35115 -57.53663 20634 ft 440 kts 355°
2026-04-29 21:38 -26.32062 -57.53614 19945 ft 438 kts 355°
2026-04-29 21:38 -26.29020 -57.53560 19317 ft 435 kts 355°
2026-04-29 21:38 -26.26006 -57.53512 18629 ft 434 kts 355°
2026-04-29 21:39 -26.22983 -57.53473 17887 ft 433 kts 355°
2026-04-29 21:39 -26.19972 -57.53442 17191 ft 431 kts 356°
2026-04-29 21:39 -26.16986 -57.53418 16517 ft 428 kts 356°
2026-04-29 21:39 -26.14096 -57.53396 15866 ft 426 kts 356°
2026-04-29 21:40 -26.11099 -57.53370 15184 ft 424 kts 357°
2026-04-29 21:40 -26.08159 -57.53363 14511 ft 421 kts 354°
2026-04-29 21:40 -26.05255 -57.53637 13947 ft 416 kts 352°
2026-04-29 21:40 -26.02384 -57.53933 13220 ft 414 kts 352°
2026-04-29 21:41 -25.99539 -57.54225 12603 ft 408 kts 352°
2026-04-29 21:41 -25.96715 -57.54517 11994 ft 404 kts 352°
2026-04-29 21:41 -25.93924 -57.54807 11298 ft 401 kts 353°
2026-04-29 21:41 -25.91189 -57.55092 11034 ft 386 kts 353°
2026-04-29 21:42 -25.88575 -57.55363 10914 ft 368 kts 353°
2026-04-29 21:42 -25.86085 -57.55621 10795 ft 352 kts 353°
2026-04-29 21:42 -25.84489 -57.55787 10714 ft 343 kts 353°
2026-04-29 21:42 -25.81395 -57.56109 10562 ft 325 kts 353°
2026-04-29 21:43 -25.79916 -57.56263 10483 ft 318 kts 353°
2026-04-29 21:43 -25.77752 -57.56490 10363 ft 307 kts 353°
2026-04-29 21:43 -25.75645 -57.56712 10142 ft 302 kts 353°
2026-04-29 21:43 -25.73564 -57.56930 9855 ft 299 kts 353°
2026-04-29 21:44 -25.71496 -57.57145 9485 ft 298 kts 353°
2026-04-29 21:44 -25.69436 -57.57360 9142 ft 296 kts 353°
2026-04-29 21:44 -25.67396 -57.57574 8806 ft 294 kts 353°
2026-04-29 21:44 -25.65359 -57.57787 8472 ft 292 kts 352°
2026-04-29 21:45 -25.63336 -57.57997 8147 ft 290 kts 352°
2026-04-29 21:45 -25.61360 -57.58199 7828 ft 288 kts 352°
2026-04-29 21:45 -25.59342 -57.58403 7495 ft 287 kts 352°
2026-04-29 21:45 -25.57349 -57.58608 6689 ft 297 kts 352°
2026-04-29 21:46 -25.55270 -57.58825 6013 ft 295 kts 352°
2026-04-29 21:46 -25.53284 -57.58958 5741 ft 279 kts
2026-04-29 21:46 -25.51404 -57.58600 5398 ft 269 kts 10°
2026-04-29 21:46 -25.49614 -57.58162 5055 ft 259 kts 11°
2026-04-29 21:47 -25.47877 -57.57736 4770 ft 253 kts 11°
2026-04-29 21:47 -25.46167 -57.57318 4474 ft 251 kts 11°
2026-04-29 21:47 -25.44463 -57.56903 4148 ft 250 kts 11°
2026-04-29 21:47 -25.42781 -57.56492 3742 ft 244 kts 11°
2026-04-29 21:48 -25.41143 -57.56091 3410 ft 240 kts 11°
2026-04-29 21:48 -25.39509 -57.55693 3086 ft 241 kts 12°
2026-04-29 21:48 -25.37879 -57.55295 2762 ft 237 kts 12°
2026-04-29 21:48 -25.36314 -57.54914 2456 ft 224 kts 12°
2026-04-29 21:49 -25.34833 -57.54553 2196 ft 210 kts 13°
2026-04-29 21:49 -25.33453 -57.54218 1901 ft 198 kts 13°
2026-04-29 21:49 -25.32167 -57.53905 1637 ft 181 kts 13°
2026-04-29 21:49 -25.30980 -57.53617 1409 ft 168 kts 13°
2026-04-29 21:50 -25.29881 -57.53350 1196 ft 157 kts 13°
2026-04-29 21:50 -25.28848 -57.53097 1009 ft 153 kts 13°
2026-04-29 21:50 -25.27812 -57.52844 815 ft 152 kts 13°
2026-04-29 21:50 -25.26777 -57.52591 583 ft 152 kts 13°
2026-04-29 21:51 -25.25738 -57.52340 380 ft 153 kts 13°
2026-04-29 21:51 -25.24725 -57.52087 286 ft 138 kts 13°
2026-04-29 21:51 -25.23448 -57.51779 274 ft 47 kts 12°
2026-04-29 21:52 -25.23280 -57.51737 272 ft 15 kts 13°
2026-04-29 21:52 -25.23173 -57.51711 273 ft 17 kts 12°
2026-04-29 21:52 -25.23068 -57.51658 272 ft 17 kts 60°
2026-04-29 21:52 -25.23082 -57.51536 276 ft 16 kts 102°
2026-04-29 21:53 -25.23166 -57.51495 278 ft 16 kts 192°
2026-04-29 21:53 -25.23281 -57.51524 279 ft 18 kts 192°
2026-04-29 21:53 -25.23414 -57.51554 278 ft 20 kts 191°
2026-04-29 21:53 -25.23558 -57.51590 278 ft 22 kts 192°
2026-04-29 21:54 -25.23717 -57.51629 278 ft 24 kts 192°
2026-04-29 21:54 -25.23887 -57.51672 278 ft 26 kts 195°
2026-04-29 21:54 -25.24005 -57.51633 278 ft 19 kts 148°
2026-04-29 21:54 -25.24100 -57.51613 280 ft 13 kts 194°
2026-04-29 21:55 -25.24197 -57.51632 279 ft 14 kts 160°
2026-04-29 21:55 -25.24231 -57.51560 278 ft 10 kts 103°
2026-04-29 21:55 -25.24232 -57.51552 281 ft 0 kts 102°